DNPO

Port Harcourt International Airport

Airport
ICAO code
DNPO
IATA Code
PHC
Summary
ICAO Region
AFI
ICAO Territory
Location

Omagwa, Rivers State

Serving
Port Harcourt
Elevation
87 ft
Coordinates
5° 0' 49" N , 6° 57' 3" E
KCC
Metar
DNPO 201900Z 00000KT 9999 TS BKN008 FEW020CB 27/24 Q1007 NOSIG

Port Harcourt International Airport is located in Port Harcourt, a city in the Rivers State of Nigeria. It is the main airport serving southeastern Nigeria.

Climatology

Tropical Monsoon climate (Köppen climate classification Am)

Runways

Designator Length Width Surface Rops
3/21 3001 60 ASP Yes/Yes

SKYbrary Partners:

Safety knowledge contributed by: